TimeCEST,TemperatureF,Dew PointF,Humidity,Sea Level PressureIn,VisibilityMPH,Wind Direction,Wind SpeedMPH,Gust SpeedMPH,PrecipitationIn,Events,Conditions,WindDirDegrees,DateUTC
2:00 AM,62,53,65,29.65,,WSW,29.9,,,,,240,2013-04-01 00:00:00
5:00 AM,62.6,53.6,72,29.62,6.2,WSW,29.9,47.2,N/A,,Scattered Clouds,240,2013-04-01 03:00:00
5:30 AM,62.6,53.6,72,29.59,6.2,SW,27.6,-,N/A,,Partly Cloudy,230,2013-04-01 03:30:00
6:00 AM,60.8,55.4,82,29.62,6.2,WSW,32.2,48.3,N/A,,Partly Cloudy,240,2013-04-01 04:00:00
6:30 AM,60.8,57.2,88,29.59,6.2,WSW,26.5,-,N/A,,Scattered Clouds,240,2013-04-01 04:30:00
7:00 AM,59.0,57.2,94,29.59,6.2,SW,24.2,35.7,N/A,,Scattered Clouds,230,2013-04-01 05:00:00
7:30 AM,59.0,57.2,94,29.59,6.2,SW,25.3,-,N/A,,Scattered Clouds,230,2013-04-01 05:30:00
8:00 AM,59,54,80,29.62,7,SW,20.7,,,,Partly Cloudy,230,2013-04-01 06:00:00
8:00 AM,60.8,57.2,88,29.62,6.2,WSW,19.6,-,N/A,,Scattered Clouds,240,2013-04-01 06:00:00
8:30 AM,60.8,55.4,82,29.62,6.2,WSW,18.4,-,N/A,,Scattered Clouds,240,2013-04-01 06:30:00
9:00 AM,62.6,55.4,77,29.65,6.2,WSW,16.1,-,N/A,,Scattered Clouds,250,2013-04-01 07:00:00
9:30 AM,62.6,55.4,77,29.65,6.2,SW,12.7,-,N/A,,Scattered Clouds,230,2013-04-01 07:30:00
10:00 AM,64.4,55.4,73,29.65,6.2,SW,10.4,-,N/A,,Partly Cloudy,220,2013-04-01 08:00:00
10:30 AM,66.2,51.8,60,29.65,6.2,SW,13.8,25.3,N/A,,Partly Cloudy,230,2013-04-01 08:30:00
11:00 AM,68.0,50.0,52,29.65,6.2,SSW,10.4,-,N/A,,Partly Cloudy,200,2013-04-01 09:00:00
11:30 AM,69.8,46.4,43,29.65,6.2,SSW,13.8,-,N/A,,Partly Cloudy,210,2013-04-01 09:30:00
12:30 PM,69.8,46.4,43,29.68,6.2,SW,19.6,-,N/A,,Partly Cloudy,220,2013-04-01 10:30:00
1:00 PM,69.8,46.4,43,29.68,6.2,SW,18.4,-,N/A,,Partly Cloudy,230,2013-04-01 11:00:00
1:30 PM,69.8,42.8,38,29.68,6.2,SW,23.0,-,N/A,,Partly Cloudy,220,2013-04-01 11:30:00
2:00 PM,70,43,26,29.69,19,SW,27.6,,,,Scattered Clouds,230,2013-04-01 12:00:00
2:00 PM,71.6,44.6,38,29.68,6.2,SW,26.5,-,N/A,,Partly Cloudy,230,2013-04-01 12:00:00
2:30 PM,71.6,44.6,38,29.68,6.2,WSW,26.5,39.1,N/A,,Partly Cloudy,240,2013-04-01 12:30:00
3:00 PM,69.8,46.4,43,29.68,6.2,SSW,16.1,27.6,N/A,,Partly Cloudy,210,2013-04-01 13:00:00
3:30 PM,69.8,50.0,49,29.68,6.2,SW,26.5,42.6,N/A,,Partly Cloudy,220,2013-04-01 13:30:00
4:00 PM,68.0,48.2,49,29.68,6.2,SW,24.2,35.7,N/A,,Partly Cloudy,220,2013-04-01 14:00:00
4:30 PM,68.0,50.0,52,29.68,6.2,SSW,21.9,35.7,N/A,,Partly Cloudy,210,2013-04-01 14:30:00
5:00 PM,69.8,48.2,46,29.68,6.2,SW,27.6,39.1,N/A,,Scattered Clouds,230,2013-04-01 15:00:00
5:30 PM,69.8,46.4,43,29.68,6.2,SW,25.3,40.3,N/A,,Scattered Clouds,230,2013-04-01 15:30:00
6:30 PM,69.8,48.2,46,29.68,6.2,SW,23.0,38.0,N/A,,Scattered Clouds,230,2013-04-01 16:30:00
7:00 PM,68.0,50.0,52,29.68,6.2,SW,21.9,40.3,N/A,,Scattered Clouds,230,2013-04-01 17:00:00
7:30 PM,66.2,51.8,60,29.71,6.2,SW,25.3,40.3,N/A,,Scattered Clouds,230,2013-04-01 17:30:00
8:00 PM,63,50,54,29.73,19,WSW,26.5,,,,Partly Cloudy,240,2013-04-01 18:00:00
8:00 PM,64.4,51.8,64,29.71,6.2,SW,28.8,44.9,N/A,,Scattered Clouds,230,2013-04-01 18:00:00
8:30 PM,62.6,51.8,68,29.74,6.2,SW,20.7,32.2,N/A,,Scattered Clouds,230,2013-04-01 18:30:00
9:00 PM,64.4,48.2,56,29.74,6.2,WSW,16.1,28.8,N/A,,Scattered Clouds,240,2013-04-01 19:00:00
9:30 PM,64.4,42.8,45,29.74,6.2,West,9.2,-,N/A,,Scattered Clouds,260,2013-04-01 19:30:00
10:00 PM,64.4,41.0,42,29.74,6.2,West,8.1,-,N/A,,Partly Cloudy,280,2013-04-01 20:00:00
10:30 PM,66.2,39.2,37,29.77,6.2,NW,21.9,35.7,N/A,,Partly Cloudy,320,2013-04-01 20:30:00